DELTA 1 DEB, 10844

Orbit data source: Space-Track

DELTA 1 DEB, 10844 is space debris in SSO originally from a launch on Thu, 29 Jul 1976 UTC launched from the Air Force Western Test Range (AFWTR). Debris objects in space refer to the collection of defunct objects orbiting the Earth. Examples of debris include non-operational satellites, rocket bodies, and fragments generated from explosions, collisions, or faulty payload assembly.

Loading next visibility...
Identifier
10844, 1976-077CQ
Orbit
SSO
Country
Flag of USUS
Related business
Manufacturer
Unknown
Mission
Spacecraft
Bus & Motor
Unknown
Mass
Unknown
Launch date (UTC)
1976-07-29 (50 years ago)
Launch vehicle
Unknown
Launch site
Air Force Western Test Range (AFWTR)
Object type
Payload
Rocket body
Debris
Shape & HBR
Unknown shape, 0.1 m
Radar Cross Section
Medium (>0.1 m² and <1 m²)

Expand to show TLE details & history
Last TLE update: 18 hours ago

TLE from 18 hours ago
0 DELTA 1 DEB
1 10844U 76077CQ  26171.10212422  .00004411  00000-0  42215-2 0  9991
2 10844 101.2123 223.0167 0118089 227.1985 162.1112 13.78059326411353
Epoch: 2026-06-20T02:27Z
TLE epoch observation values (Epoch: 2026-06-20T02:27:03.532Z)
Latitude
29.14505°
Longitude
-88.38313°
Altitude
1,056.955 km
Speed
7.285 km/s
True Right ascension
14h 26m 48s
True Declination
29° 00' 18"
Sunlit
Object was in daylight at epoch
Visualization orbit readout
Latitude
Unknown
Longitude
Unknown
Altitude
Unknown
Speed
Unknown
Apparent Right ascension
Unknown
Apparent Declination
Unknown
Sunlit
N/A
Visualization observer readout
Local Sidereal Time
07:36:41
Azimuth
Unknown
Elevation
Unknown
Doppler factor
Unknown
Orbital elements
Apogee altitude
1,054.877 km
Perigee altitude
881.375 km
Semi-major axis
7,346.263 km
Eccentricity
0.01181
Inclination
101.2123°
RAAN
223.0167°
Arg. of periapsis
227.1985°
True anomaly
162.5211°
Mean anomaly
162.1112°
Eccentric anomaly
162.31672°
Mean motion
3.44702 °/min
Orbital period
104.44 mins
BSTAR
0.0042215
Loading maneuver chart data...
Computing Atmospheric mass density...
Loading historical data...
Loading historical data...
Loading historical data...
Loading historical data...
Loading historical data...
Loading historical data...
Loading historical data...

Documentation

Showing up to 5 results
|